ONEWEB-0128 (47274 NORAD) Tracking and Keplerian Element Data

This shows tracking and keplerian element data for the satellite.

Feedback or suggestion? Click here.




ElementValue
Catalog47274
NameONEWEB-0128
Epoch Orbit172
Epoch Day99.91667824
Epoch Year2021
RAAN7.2524
Inclination87.9631
Eccentricity0.000131
Argument of Perigee90.4229
Mean Anonmoly76.5569
Mean Motion13.28808575
Decay Rate1.3E-07
L11 47274U 20100S 21099.91667824 .00000013 00000-0 00000-0 0 9995
L22 47274 87.9631 7.2524 0001310 90.4229 76.5569 13.28808575 1726

Live tracking and technical data element details for ONEWEB-0128 (NORAD 47274). ONEWEB-0128 can be tracked NOW for your location showing map with azimuth and elevation plus other details from your city location.

Track the satellite on the map from your city or location and see movement details for azimuth, elevation, latitude, longitude, range, height, and movement on the map or in text.







IsCatalogInMostPopularTable: catalog: 47274, numindb: 33
Update: records affected: 1



GetName: 47274 ONEWEB-0128

Hit Count: updated at: Sat, 10 Apr 2021 18:56:05 GMT